Location: Rogalle
(42.8890°N, 1.1916°E)
Time: 21:48:29
(UTC+00:00)

Cosmos 2297 Rocket - Pass Details

Date: 13 December 2025
Orbit: 837 x 844 km, 71.0° (Epoch: 21 January)

Event Time Altitude Azimuth Distance (km) Brightness Sun altitude
Rises 17:15:23 0° 329° (NNW) 3,410 5.5 -9.7°
Reaches altitude 10° 17:17:55 10° 323° (NW) 2,471 4.8 -10.1°
Maximum altitude 17:23:15 43° 253° (WSW) 1,162 3.6 -11.0°
Drops below altitude 10° 17:28:33 10° 183° (S) 2,455 4.9 -11.9°
Sets 17:31:05 0° 177° (S) 3,385 5.6 -12.3°
